EI8EPB-1 Weather Reports


time (UTC)temp
C
wind
direction
speed
KPH
gust
KPH
rain 1hr
cm
rain 24hr
cm
rain mn
cm
humidity
%
barometer
mb
20260506051003 6 0 0.0 0.0 0.00 0.00 0.00 87 1013.4
20260506050503 6 0 0.0 0.0 0.00 0.00 0.00 87 1013.4
20260506045003 6 0 0.0 0.0 0.00 0.00 0.00 87 1013.5
20260506044503 6 292 0.0 1.6 0.00 0.00 0.00 87 1013.4
20260506044003 6 292 0.0 1.6 0.00 0.00 0.00 87 1013.4
20260506043503 6 292 0.0 1.6 0.00 0.00 0.00 86 1013.4
20260506043003 7 289 0.0 1.6 0.00 0.00 0.00 86 1013.5
20260506042503 7 289 0.0 1.6 0.00 0.00 0.00 86 1013.5
20260506042003 6 290 0.0 1.6 0.00 0.00 0.00 86 1013.6
20260506041503 7 313 0.0 1.6 0.00 0.00 0.00 87 1013.5
20260506041003 7 317 0.0 3.2 0.00 0.00 0.00 87 1013.6
20260506040503 7 314 0.0 3.2 0.00 0.00 0.00 87 1013.6
20260506040003 7 310 0.0 3.2 0.00 0.00 0.00 87 1013.6
20260506035503 7 317 0.0 3.2 0.00 0.00 0.00 87 1013.6
20260506035003 7 25 0.0 1.6 0.00 0.00 0.00 88 1013.6
20260506034503 7 23 0.0 1.6 0.00 0.00 0.00 88 1013.6
20260506034003 7 338 0.0 1.6 0.00 0.00 0.00 88 1013.8
20260506033503 7 330 0.0 1.6 0.00 0.00 0.00 88 1013.8
20260506033004 7 296 0.0 1.6 0.00 0.00 0.00 88 1013.8
20260506032503 7 296 0.0 1.6 0.00 0.00 0.00 88 1013.8
20260506032003 7 0 0.0 0.0 0.00 0.00 0.00 88 1013.8
20260506031505 7 296 0.0 1.6 0.00 0.00 0.00 87 1013.8
20260506031003 7 290 0.0 1.6 0.00 0.00 0.00 87 1013.8
20260506030503 7 318 0.0 4.8 0.00 0.00 0.00 87 1013.8
20260506030003 7 326 0.0 4.8 0.00 0.00 0.00 87 1013.8
20260506025503 7 331 0.0 3.2 0.00 0.00 0.00 88 1013.9
20260506025003 7 322 0.0 3.2 0.00 0.00 0.00 88 1013.9
20260506024503 7 310 0.0 3.2 0.00 0.00 0.00 89 1013.9
20260506024003 7 316 0.0 3.2 0.00 0.00 0.00 89 1014.0
20260506023503 7 325 0.0 3.2 0.00 0.00 0.00 90 1013.9
20260506023003 7 320 0.0 3.2 0.00 0.00 0.00 91 1013.9
20260506022503 8 315 0.0 3.2 0.00 0.00 0.00 91 1013.9
20260506022003 8 335 0.0 3.2 0.00 0.00 0.00 92 1013.9
20260506021503 8 347 0.0 3.2 0.00 0.00 0.00 93 1014.0
20260506021003 8 320 0.0 3.2 0.00 0.00 0.00 93 1014.0
20260506020503 8 303 0.0 1.6 0.00 0.00 0.00 94 1014.0
20260506020004 8 0 0.0 0.0 0.00 0.00 0.00 94 1014.0
20260506015503 8 0 0.0 0.0 0.00 0.00 0.00 94 1014.0
20260506015003 8 0 0.0 0.0 0.00 0.00 0.00 94 1014.0
20260506014503 8 0 0.0 0.0 0.00 0.00 0.00 94 1014.0
20260506014003 8 0 0.0 0.0 0.00 0.00 0.00 94 1014.0
20260506013504 8 0 0.0 0.0 0.00 0.00 0.00 94 1014.0
20260506013003 8 0 0.0 0.0 0.00 0.00 0.00 94 1014.1
20260506012505 8 0 0.0 0.0 0.00 0.00 0.00 94 1014.1
20260506012003 8 0 0.0 0.0 0.00 0.00 0.00 93 1014.2
20260506011503 8 0 0.0 0.0 0.00 0.00 0.00 93 1014.2
20260506011003 8 0 0.0 0.0 0.00 0.00 0.00 93 1014.2
20260506010503 8 0 0.0 0.0 0.00 0.00 0.00 93 1014.2
20260506010004 8 0 0.0 0.0 0.00 0.00 0.00 93 1014.2
20260506005503 8 0 0.0 0.0 0.00 0.00 0.00 93 1014.2
20260506005003 8 0 0.0 0.0 0.00 0.00 0.00 93 1014.2
20260506004504 8 0 0.0 0.0 0.00 0.00 0.00 93 1014.2
20260506004003 8 0 0.0 0.0 0.00 0.00 0.00 93 1014.3
20260506003503 8 0 0.0 0.0 0.00 0.00 0.00 93 1014.2
20260506003003 8 0 0.0 0.0 0.00 0.00 0.00 92 1014.3
20260506002503 8 0 0.0 0.0 0.00 0.00 0.00 92 1014.3
20260506002003 8 0 0.0 0.0 0.00 0.00 0.00 92 1014.3
20260506001503 8 0 0.0 0.0 0.00 0.00 0.00 92 1014.3
20260506001003 8 0 0.0 0.0 0.00 0.00 0.00 92 1014.2
20260506000503 8 0 0.0 0.0 0.00 0.00 0.00 92 1014.3
20260506000003 8 0 0.0 0.0 0.00 0.00 0.00 92 1014.3
20260505235503 8 0 0.0 0.0 0.00 0.00 0.00 91 1014.4
20260505235003 8 0 0.0 0.0 0.00 0.00 0.00 91 1014.4
20260505234503 8 0 0.0 0.0 0.00 0.00 0.00 91 1014.4
20260505234003 8 0 0.0 0.0 0.00 0.00 0.00 91 1014.4
20260505233503 8 0 0.0 0.0 0.00 0.00 0.00 90 1014.4
20260505233003 8 0 0.0 0.0 0.00 0.00 0.00 90 1014.4
20260505232503 8 0 0.0 0.0 0.00 0.00 0.00 89 1014.4
20260505232003 8 0 0.0 0.0 0.00 0.00 0.00 89 1014.4
20260505231503 9 0 0.0 0.0 0.00 0.00 0.00 89 1014.5
20260505231003 9 145 0.0 1.6 0.00 0.00 0.00 89 1014.5
20260505230503 9 145 0.0 1.6 0.00 0.00 0.00 89 1014.6
20260505230004 9 145 0.0 1.6 0.00 0.00 0.00 89 1014.6
20260505225504 9 145 0.0 1.6 0.00 0.00 0.00 88 1014.6
20260505225003 9 146 0.0 1.6 0.00 0.00 0.00 88 1014.6
20260505224503 10 150 0.0 1.6 0.00 0.00 0.00 88 1014.6
20260505224003 10 152 0.0 1.6 0.00 0.00 0.00 88 1014.6
20260505223503 10 142 0.0 3.2 0.00 0.00 0.00 88 1014.6
20260505223003 10 139 0.0 3.2 0.00 0.00 0.00 88 1014.7
20260505222503 10 138 0.0 1.6 0.00 0.00 0.00 88 1014.7
20260505222003 10 131 0.0 1.6 0.00 0.00 0.00 87 1014.7
20260505221503 10 139 0.0 3.2 0.00 0.00 0.00 87 1014.8
20260505221003 10 141 0.0 3.2 0.00 0.00 0.00 87 1014.8
20260505220503 10 0 0.0 0.0 0.00 0.00 0.00 86 1014.8
20260505220003 10 0 0.0 0.0 0.00 0.00 0.00 86 1014.8
20260505215503 10 0 0.0 0.0 0.00 0.00 0.00 86 1014.7
20260505215003 10 0 0.0 0.0 0.00 0.00 0.00 86 1014.7
20260505214503 10 0 0.0 0.0 0.00 0.00 0.00 86 1014.7
20260505214003 10 0 0.0 0.0 0.00 0.00 0.00 86 1014.7
20260505213503 10 0 0.0 0.0 0.00 0.00 0.00 86 1014.7
20260505213003 10 0 0.0 0.0 0.00 0.00 0.00 86 1014.8
20260505212503 10 0 0.0 0.0 0.00 0.00 0.00 85 1014.7
20260505212003 10 0 0.0 0.0 0.00 0.00 0.00 85 1014.7
20260505211503 10 0 0.0 0.0 0.00 0.00 0.00 84 1014.7
20260505211003 10 0 0.0 0.0 0.00 0.00 0.00 84 1014.7
20260505210503 11 0 0.0 0.0 0.00 0.00 0.00 83 1014.8
20260505210004 11 0 0.0 0.0 0.00 0.00 0.00 83 1014.7
20260505205503 11 0 0.0 0.0 0.00 0.00 0.00 83 1014.7
20260505205003 11 0 0.0 0.0 0.00 0.00 0.00 82 1014.7
20260505204503 11 0 0.0 0.0 0.00 0.00 0.00 82 1014.6
20260505204003 11 0 0.0 0.0 0.00 0.00 0.00 82 1014.7
20260505203504 11 0 0.0 0.0 0.00 0.00 0.00 81 1014.6
20260505203003 11 0 0.0 0.0 0.00 0.00 0.00 81 1014.6
20260505202503 11 0 0.0 0.0 0.00 0.00 0.00 81 1014.7
20260505202004 11 0 0.0 0.0 0.00 0.00 0.00 81 1014.6
20260505201503 11 0 0.0 0.0 0.00 0.00 0.00 81 1014.6
20260505201003 11 0 0.0 0.0 0.00 0.00 0.00 81 1014.6
20260505200503 11 0 0.0 0.0 0.00 0.00 0.00 81 1014.7
20260505200003 11 0 0.0 0.0 0.00 0.00 0.00 80 1014.6
20260505195503 11 0 0.0 0.0 0.00 0.00 0.00 80 1014.7
20260505195003 11 0 0.0 0.0 0.00 0.00 0.00 80 1014.7
20260505194503 11 0 0.0 0.0 0.00 0.00 0.00 80 1014.6
20260505194003 11 0 0.0 0.0 0.00 0.00 0.00 80 1014.6
20260505193503 11 0 0.0 0.0 0.00 0.00 0.00 80 1014.5
20260505193003 11 0 0.0 0.0 0.00 0.00 0.00 79 1014.5
20260505192503 11 0 0.0 0.0 0.00 0.00 0.00 79 1014.5
20260505192003 11 0 0.0 0.0 0.00 0.00 0.00 79 1014.5
20260505191503 12 0 0.0 0.0 0.00 0.00 0.00 78 1014.5
20260505191003 12 0 0.0 0.0 0.00 0.00 0.00 78 1014.5
20260505190503 12 0 0.0 0.0 0.00 0.00 0.00 78 1014.5
20260505190004 12 0 0.0 0.0 0.00 0.00 0.00 78 1014.4
20260505185503 12 0 0.0 0.0 0.00 0.00 0.00 78 1014.4
20260505185003 12 0 0.0 0.0 0.00 0.00 0.00 79 1014.4
20260505184503 12 0 0.0 0.0 0.00 0.00 0.00 78 1014.4
20260505184004 12 0 0.0 0.0 0.00 0.00 0.00 78 1014.4
20260505183503 12 0 0.0 0.0 0.00 0.00 0.00 78 1014.3
20260505183004 12 0 0.0 0.0 0.00 0.00 0.00 78 1014.3
20260505182503 12 0 0.0 0.0 0.00 0.00 0.00 78 1014.3
20260505182003 12 0 0.0 0.0 0.00 0.00 0.00 77 1014.3
20260505181503 12 0 0.0 0.0 0.00 0.00 0.00 77 1014.3
20260505181003 12 282 0.0 1.6 0.00 0.00 0.00 76 1014.4
20260505180503 12 303 0.0 1.6 0.00 0.00 0.00 76 1014.3
20260505180003 12 285 0.0 1.6 0.00 0.00 0.00 76 1014.4
20260505175503 12 287 1.6 3.2 0.00 0.00 0.00 76 1014.5
20260505175003 12 286 1.6 3.2 0.00 0.00 0.00 76 1014.5
20260505174503 12 286 0.0 3.2 0.00 0.00 0.00 76 1014.5
20260505174003 12 277 0.0 3.2 0.00 0.00 0.00 76 1014.6
20260505173503 12 271 0.0 1.6 0.00 0.00 0.00 75 1014.5
20260505173003 12 0 0.0 0.0 0.00 0.00 0.00 76 1014.5
20260505172504 12 0 0.0 0.0 0.00 0.00 0.00 75 1014.6
20260505172003 12 276 0.0 1.6 0.00 0.00 0.00 75 1014.6
20260505171503 12 301 0.0 1.6 0.00 0.00 0.00 75 1014.6
20260505171003 12 309 0.0 1.6 0.00 0.00 0.00 75 1014.6
20260505170503 12 275 0.0 1.6 0.00 0.00 0.00 75 1014.6
20260505170004 12 264 0.0 1.6 0.00 0.00 0.00 74 1014.7
20260505165503 12 257 0.0 1.6 0.00 0.00 0.00 75 1014.7
20260505165003 12 238 0.0 1.6 0.00 0.00 0.00 75 1014.7
20260505164503 12 244 0.0 1.6 0.00 0.00 0.00 75 1014.7
20260505164003 12 252 0.0 1.6 0.00 0.00 0.00 75 1014.7
20260505163504 12 75 0.0 1.6 0.00 0.00 0.00 76 1014.7
20260505163003 12 41 0.0 3.2 0.00 0.00 0.00 77 1014.7
20260505162503 12 41 0.0 3.2 0.00 0.00 0.00 76 1014.7
20260505162003 12 30 0.0 3.2 0.00 0.00 0.00 76 1014.7
20260505161503 12 15 0.0 3.2 0.00 0.00 0.00 76 1014.7
20260505161003 12 32 0.0 3.2 0.00 0.00 0.00 75 1014.8
20260505160503 12 15 0.0 3.2 0.00 0.00 0.00 75 1014.8
20260505153003 12 26 1.6 6.4 0.00 0.00 0.00 75 1014.8
20260505152503 12 360 1.6 6.4 0.00 0.00 0.00 74 1014.8
20260505152003 12 356 1.6 6.4 0.00 0.00 0.00 73 1014.8
20260505151503 13 357 1.6 6.4 0.00 0.00 0.00 73 1014.8
20260505151003 13 302 1.6 6.4 0.00 0.00 0.00 72 1014.8
20260505150503 13 211 3.2 6.4 0.00 0.00 0.00 73 1014.8
20260505140503 12 278 1.6 6.4 0.00 0.00 0.00 81 1015.0
20260505125003 13 274 1.6 8.0 0.00 0.00 0.00 72 1015.1
20260505124503 13 285 1.6 8.0 0.00 0.00 0.00 73 1015.1
20260505124003 13 316 1.6 4.8 0.00 0.00 0.00 73 1015.1
20260505123503 12 331 1.6 4.8 0.00 0.00 0.00 75 1015.2
20260505123003 12 336 1.6 4.8 0.00 0.00 0.00 75 1015.2
20260505122503 12 332 1.6 3.2 0.00 0.00 0.00 77 1015.2
20260505122004 12 293 1.6 3.2 0.00 0.00 0.00 76 1015.2
20260505121503 12 287 1.6 3.2 0.00 0.00 0.00 76 1015.2
20260505121003 12 290 1.6 4.8 0.00 0.00 0.00 76 1015.2
20260505120503 12 277 1.6 4.8 0.00 0.00 0.00 78 1015.3
20260505120004 12 280 1.6 4.8 0.00 0.00 0.00 77 1015.3
20260505115503 12 256 1.6 4.8 0.00 0.00 0.00 78 1015.4
20260505115003 12 279 1.6 6.4 0.00 0.00 0.00 79 1015.4
20260505114503 12 305 1.6 6.4 0.00 0.00 0.00 79 1015.5
20260505114003 12 193 1.6 6.4 0.00 0.00 0.00 81 1015.5
20260505113503 11 228 1.6 4.8 0.00 0.00 0.00 81 1015.5
20260505113003 11 262 1.6 3.2 0.00 0.00 0.00 82 1015.6
20260505112504 11 241 1.6 6.4 0.00 0.00 0.00 82 1015.5
20260505112003 11 245 1.6 6.4 0.00 0.00 0.00 82 1015.6
20260505111503 11 273 0.0 4.8 0.00 0.00 0.00 81 1015.8
20260505111003 11 310 0.0 3.2 0.00 0.00 0.00 82 1015.8
20260505110503 11 334 1.6 3.2 0.00 0.00 0.00 83 1015.8
20260505102003 12 326 0.0 3.2 0.00 0.00 0.00 75 1015.7
20260505101503 12 339 0.0 3.2 0.00 0.00 0.00 76 1015.7
20260505101003 12 353 0.0 4.8 0.00 0.00 0.00 78 1015.6
20260505100503 11 7 0.0 4.8 0.00 0.00 0.00 77 1015.7
20260505100003 11 14 1.6 6.4 0.00 0.00 0.00 79 1015.7
20260505095503 11 337 1.6 6.4 0.00 0.00 0.00 78 1015.8
20260505095003 11 267 1.6 6.4 0.00 0.00 0.00 78 1015.8
20260505094503 11 259 1.6 6.4 0.00 0.00 0.00 78 1015.8
20260505094003 11 262 1.6 6.4 0.00 0.00 0.00 79 1015.8
20260505093503 11 270 1.6 6.4 0.00 0.00 0.00 79 1015.8
20260505093003 11 267 1.6 6.4 0.00 0.00 0.00 81 1015.8
20260505092503 11 257 1.6 4.8 0.00 0.00 0.00 81 1015.8
20260505092003 11 265 1.6 4.8 0.00 0.00 0.00 81 1015.8
20260505091503 11 280 1.6 8.0 0.00 0.00 0.00 82 1015.9
20260505091003 11 291 1.6 8.0 0.00 0.00 0.00 82 1015.8
20260505090503 11 16 1.6 6.4 0.00 0.00 0.00 82 1015.8
20260505090004 11 28 1.6 6.4 0.00 0.00 0.00 83 1015.9
20260505085503 11 351 1.6 6.4 0.00 0.00 0.00 83 1015.9
20260505085003 11 293 1.6 6.4 0.00 0.00 0.00 84 1015.9
20260505084503 10 273 1.6 8.0 0.00 0.00 0.00 84 1015.8
20260505084003 10 268 1.6 8.0 0.00 0.00 0.00 83 1015.9
20260505083503 10 266 1.6 6.4 0.00 0.00 0.00 84 1015.8
20260505083003 10 268 1.6 6.4 0.00 0.00 0.00 85 1015.9
20260505082503 10 272 1.6 9.7 0.00 0.00 0.00 85 1015.8
20260505082003 10 269 1.6 9.7 0.00 0.00 0.00 85 1015.9
20260505081503 10 255 1.6 6.4 0.00 0.00 0.00 85 1015.9
20260505081003 10 267 1.6 6.4 0.00 0.00 0.00 86 1015.9
20260505080504 10 295 1.6 6.4 0.00 0.00 0.00 86 1015.9
20260505080003 10 311 1.6 6.4 0.00 0.00 0.00 86 1016.0
20260505075503 10 277 1.6 4.8 0.00 0.00 0.00 86 1015.9
20260505075003 10 281 1.6 6.4 0.00 0.00 0.00 86 1015.8
20260505074503 10 281 1.6 6.4 0.00 0.00 0.00 85 1015.8
20260505074003 10 275 0.0 3.2 0.00 0.00 0.00 86 1015.8
20260505073503 10 277 0.0 3.2 0.00 0.00 0.00 87 1015.8
20260505073003 10 301 1.6 3.2 0.00 0.00 0.00 87 1015.8
20260505072503 10 42 0.0 3.2 0.00 0.00 0.00 87 1015.8
20260505072003 10 266 0.0 1.6 0.00 0.00 0.00 88 1015.8
20260505071503 10 261 0.0 1.6 0.00 0.00 0.00 89 1015.9
20260505071003 9 308 0.0 1.6 0.00 0.00 0.00 88 1015.8
20260505070503 9 277 0.0 1.6 0.00 0.00 0.00 89 1015.8
20260505070003 9 266 0.0 1.6 0.00 0.00 0.00 89 1015.8
20260505065503 9 251 0.0 1.6 0.00 0.00 0.00 89 1015.8
20260505065003 9 250 0.0 1.6 0.00 0.00 0.00 89 1015.8
20260505064503 8 281 0.0 1.6 0.00 0.00 0.00 89 1015.8
20260505064003 8 280 0.0 1.6 0.00 0.00 0.00 89 1015.8
20260505063503 8 253 0.0 1.6 0.00 0.00 0.00 89 1015.8
20260505063003 8 220 0.0 1.6 0.00 0.00 0.00 89 1015.9
20260505062503 8 216 0.0 1.6 0.00 0.00 0.00 89 1015.9
20260505062003 8 216 0.0 1.6 0.00 0.00 0.00 89 1015.9
20260505061503 8 221 0.0 1.6 0.00 0.00 0.00 89 1015.8
20260505061003 8 222 0.0 1.6 0.00 0.00 0.00 89 1015.8
20260505060503 8 222 0.0 1.6 0.00 0.00 0.00 89 1015.8
20260505060003 8 222 0.0 1.6 0.00 0.00 0.00 89 1015.8
20260505055503 8 213 0.0 1.6 0.00 0.00 0.00 89 1015.8
20260505055003 8 214 0.0 1.6 0.00 0.00 0.00 88 1015.8
20260505054503 8 216 0.0 1.6 0.00 0.00 0.00 88 1015.8
20260505054003 8 216 0.0 1.6 0.00 0.00 0.00 88 1015.8
20260505053503 8 212 0.0 1.6 0.00 0.00 0.00 88 1015.8
20260505053003 8 232 0.0 1.6 0.00 0.00 0.00 88 1015.7
20260505052503 8 288 0.0 1.6 0.00 0.00 0.00 88 1015.7